Flag for U.S.A. Weather past 2 weeks in Vevay, Indiana, U.S.A.

Now
79 °F

Scattered clouds.


Feels Like: 80 °F
Forecast: 53 / 82 °F
Wind: 6 mph from Northeast

Location: Cincinnati / Northern Kentucky International Airport

Current Time: Sep 30, 2014 at 2:12:49 PM

Latest Report: Sep 30, 2014 at 1:52 PM


Visibility: 10 mi

Pressure: 29.90 "Hg

Humidity: 47%

Dew point: 57 °F

Location of VevayLocation

Historic Weather in Vevay — Graph

°F

Vevay temperature yesterday

Maximum temperature yesterday: 83 °F (at 3:52 PM)
Minimum temperature yesterday: 58 °F (at 7:52 AM)
Average temperature yesterday: 69 °F

Past Weeks' High & Low Weather Summary

 TemperatureHumidityPressure
High83 °F (Sep 28, 3:52 PM)97% (Sep 29, 7:52 AM)30.36 "Hg (Sep 29, 7:52 AM)
Low45 °F (Sep 23, 4:52 AM)31% (Sep 29, 3:52 PM)29.80 "Hg (Sep 21, 5:52 AM)
Average65 °F65%30.11 "Hg
* Reported Sep 15 12:52 PM — Sep 30 12:52 PM, Vevay, Weather by CustomWeather, © 2014

Note: Actual official high and low records may vary slightly from our data, if they occured in-between our weather recording intervals... More about our weather records

Advertising

Vevay weather history for previous 24 hours

 ConditionsComfort  
Time TempWeatherWind HumidityBarometerVisibility
12:52 PM
Sep 30
77 °FScattered clouds.9 mph48%29.91 "Hg10 mi
11:52 AM75 °FScattered clouds.5 mph50%29.92 "Hg10 mi
10:52 AM72 °FSunny.5 mph53%29.92 "Hg10 mi
9:52 AM68 °FPassing clouds.5 mph59%29.93 "Hg10 mi
8:52 AM60 °FPassing clouds.No wind78%29.93 "Hg10 mi
7:52 AM54 °FPassing clouds.No wind90%29.93 "Hg10 mi
6:52 AM54 °FClear.3 mph90%29.91 "Hg10 mi
5:52 AM56 °FClear.No wind84%29.90 "Hg10 mi
4:52 AM56 °FClear.No wind84%29.90 "Hg10 mi
3:52 AM54 °FClear.No wind86%29.90 "Hg10 mi
2:52 AM55 °FClear.3 mph93%29.91 "Hg9 mi
1:52 AM57 °FClear.No wind87%29.92 "Hg10 mi
12:52 AM57 °FClear.No wind83%29.92 "Hg10 mi
11:52 PM
Sep 29
61 °FClear.No wind70%29.92 "Hg10 mi
10:52 PM61 °FClear.No wind67%29.93 "Hg10 mi
9:52 PM64 °FClear.No wind61%29.93 "Hg10 mi
8:52 PM67 °FClear.No wind57%29.92 "Hg10 mi
7:52 PM72 °FSunny.3 mph49%29.91 "Hg10 mi
6:52 PM76 °FSunny.5 mph43%29.91 "Hg10 mi
5:52 PM81 °FPassing clouds.8 mph35%29.91 "Hg10 mi
4:52 PM82 °FPassing clouds.6 mph33%29.92 "Hg10 mi
3:52 PM83 °FScattered clouds.12 mph31%29.92 "Hg10 mi
2:52 PM82 °FPassing clouds.6 mph37%29.94 "Hg10 mi
Weather by CustomWeather, © 2014

See weather overviewHow to use our weather pages